{"data":{"norad_id":68975,"epoch":"2026-09-19T19:40:14.115648Z","epoch_age_seconds":78180,"freshness":"FRESH","line1":"1 68975U 26099AA  26262.81960782  .00026293  00000+0  78662-3 0  9993","line2":"2 68975  53.1597  78.7017 0001033  65.8619 294.2492 15.34399146 21807","mean_motion":15.34399146,"eccentricity":0.0001033,"inclination_deg":53.1597,"raan_deg":78.7017,"arg_perigee_deg":65.8619,"mean_anomaly_deg":294.2492,"bstar":0.00078662,"rev_number":2180,"period_min":93.847810314149,"perigee_km":461.99911941724,"apogee_km":463.41243753527,"semimajor_km":6840.8427784763,"source":"CELESTRAK","updated_at":"2026-09-20T09:00:44.056600Z"}}